Regional Weather Roundup
Issued by NWS

Home | Current Version | Previous Version | Graphics & Text | Print | Product List | Glossary On
Versions: 1 2 3 4 5 6 7 8 9 10 11 12 13 14 15 16 17 18 19 20 21 22 23 24 25 26 27 28 29 30 31 32 33 34 35 36 37 38 39 40 41 42 43 44 45 46 47 48 49 50
586
ASUS45 KSLC 230210
RWRUT

UTAH REGIONAL WEATHER ROUNDUP
NATIONAL WEATHER SERVICE SALT LAKE CITY UT
800 PM MDT MON MAY 22 2017

UTZ001>011-023>025-230300-

NORTHERN UTAH

CITY           SKY/WX    TMP DP  RH WIND       PRES   REMARKS
BRIGHAM CITY   PTCLDY    70  41  34 CALM      30.15S
HILL AFB       CLEAR     68  38  32 E3        30.17S
LOGAN          PTCLDY    70  49  47 NW7       30.14S
OGDEN          CLEAR     69  35  28 S3        30.15S
SALT LAKE CITY MOCLDY    73  36  25 NW3       30.14S
TOOELE VALLEY  CLEAR     72  43  35 CALM      30.15S
WENDOVER       CLEAR     75  31  19 SE5       30.14F
WEST JORDAN    CLEAR     71  48  45 N6        30.18R

$$

UTZ011>015-024>027-230300-

CENTRAL/NORTHEAST UTAH

CITY           SKY/WX    TMP DP  RH WIND       PRES   REMARKS
PROVO AIRPORT  PTCLDY    66  46  48 NW18      30.17R
MOAB/CANYONLAN PTCLDY    75  27  17 W5        30.02F
DELTA          CLEAR     72  28  20 N10       30.15R
PRICE          CLEAR     67  31  26 NW17      30.16R
RICHFIELD      CLEAR     68  34  28 NW7       30.19R
ROOSEVELT      MOCLDY    72  25  17 NW9       30.13R
VERNAL         PTCLDY    61  36  39 NE26G39   30.14R

$$

UTZ013>016-019>022-027-230300-

SOUTHERN UTAH

CITY           SKY/WX    TMP DP  RH WIND       PRES   REMARKS
BRYCE CANYON   CLEAR     62  25  24 NW18G26   30.27R
CEDAR CITY     CLEAR     69  26  20 N10       30.18R
MILFORD        CLEAR     73  28  18 NE7       30.15F
ST GEORGE      PTCLDY    87  26  11 NE8       29.98S
HANKSVILLE     CLEAR     79  27  14 NW12G18   30.06R
KANAB          CLEAR     77  27  15 SW9       30.12S
BLANDING       CLEAR     66  23  19 NW7       30.21R

$$

REGIONAL REPORTS     COLORADO/ARIZONA

CITY           SKY/WX    TMP DP  RH WIND       PRES   REMARKS
CRAIG, CO      CLOUDY    48  32  53 E14       30.26R
GRAND JUNCTION CLOUDY    69  32  25 NE24G31   30.07R
RIFLE, CO      CLOUDY    57  38  48 NW7       30.20R
MONTROSE, CO   CLOUDY    65  29  25 CALM      30.13S
CORTEZ, CO     CLEAR     67  26  21 NW14G20   30.12R
COLORADO CITY    N/A     79  23  12 NW13      30.13S
PAGE, AZ       CLEAR     80  31  16 E6        30.03S
GRAND CANYON   PTCLDY    67  21  17 N3        30.21S
KINGMAN, AZ    PTCLDY    86  29  12 N9        30.01S
FLAGSTAFF, AZ  MOCLDY    67  20  16 VRB5      30.22S

$$

REGIONAL REPORTS    NEVADA/IDAHO/WYOMING

CITY           SKY/WX    TMP DP  RH WIND       PRES   REMARKS
LAS VEGAS, NV  PTCLDY    93  29  10 S5        29.90S
ELY, NY        CLEAR     72  24  16 N10       30.22R
ELKO, NV       CLEAR     74  34  23 SW6       30.17F
POCATELLO, ID  CLOUDY    70  41  34 SW12      30.14S
BURLEY, ID     CLEAR     72  40  31 W6        30.12S
FORT BRIDGER,  MOCLDY    60  28  29 NW16G26   30.27R
EVANSTON, WY   CLOUDY    56  41  57 NW15      30.27R
ROCK SPRINGS,  LGT RAIN  43  33  68 E17G28    30.31R
KEMMERER, WY     N/A     55  30  38 NW9       30.28R

$$




USA.gov is the U.S. government's official web portal to all federal, state and local government web resources and services.